User: anonymous   Login
Location: Bakov nad Jizerou
(50.4784°N, 14.9394°E)
Time: 06:17:13
(UTC+00:00)
Language:

SL-16 R/B - Orbit

View from above orbital plane
View from above orbital plane
View from above satellite
View from above satellite

Ground track
Ground track

The orbit data is extracted from the following two-line orbital elements,

1 28353U 04021B   21267.76452920  .00000014  00000-0  32094-4 0  9998
2 28353  71.0008  45.5214 0006123 328.8609  31.2149 14.14252315892791
Epoch (UTC): 24 September 2021 18:20:55
Eccentricity: 0.0006123
inclination: 71.0008°
perigee height: 840 km
apogee height: 849 km
right ascension of ascending node: 45.5214°
argument of perigee: 328.8609°
revolutions per day: 14.14252315
mean anomaly at epoch: 31.2149°
orbit number at epoch: 89279

The dashed part of the orbit path shows where the satellite is in the earth's shadow,  

DLR